Time,TemperatureF,DewpointF,PressureIn,WindDirection,WindDirectionDegrees,WindSpeedMPH,WindSpeedGustMPH,Humidity,HourlyPrecipIn,Conditions,Clouds,dailyrainin,SoftwareType,DateUTC
2013-03-26 00:00:00,33.4,27.6,29.63,SSW,205,0.0,0.0,79,0.00,,,0.00,Wunderground v.1.13,2013-03-26 04:00:00,
2013-03-26 00:02:00,33.4,27.6,29.63,SSW,205,0.0,0.0,79,0.00,,,0.00,Wunderground v.1.13,2013-03-26 04:02:00,
2013-03-26 00:07:00,33.4,27.9,29.63,SSW,205,0.0,0.0,80,0.00,,,0.00,Wunderground v.1.13,2013-03-26 04:07:00,
2013-03-26 00:12:00,33.4,27.0,29.63,SSW,205,0.0,0.0,77,0.00,,,0.00,Wunderground v.1.13,2013-03-26 04:12:00,
2013-03-26 00:17:00,33.4,27.6,29.64,SSW,205,0.0,0.0,79,0.00,,,0.00,Wunderground v.1.13,2013-03-26 04:17:00,
2013-03-26 00:23:00,33.2,27.4,29.63,SSW,205,0.0,0.0,79,0.00,,,0.00,Wunderground v.1.13,2013-03-26 04:23:00,
2013-03-26 00:29:00,33.1,27.6,29.63,SSW,205,0.0,0.0,80,0.00,,,0.00,Wunderground v.1.13,2013-03-26 04:29:00,
2013-03-26 00:34:00,33.2,27.7,29.63,SSW,205,0.0,0.0,80,0.00,,,0.00,Wunderground v.1.13,2013-03-26 04:34:00,
2013-03-26 00:39:00,33.4,27.9,29.63,SSW,205,0.0,0.0,80,0.00,,,0.00,Wunderground v.1.13,2013-03-26 04:39:00,
2013-03-26 00:45:00,33.3,27.8,29.63,SSW,205,0.0,0.0,80,0.00,,,0.00,Wunderground v.1.13,2013-03-26 04:45:00,
2013-03-26 00:51:00,33.2,27.7,29.63,SSW,205,0.0,0.0,80,0.00,,,0.00,Wunderground v.1.13,2013-03-26 04:51:00,
2013-03-26 00:57:00,33.2,28.0,29.63,SSW,205,0.0,0.0,81,0.00,,,0.00,Wunderground v.1.13,2013-03-26 04:57:00,
2013-03-26 01:02:00,33.3,28.1,29.63,SSW,205,0.0,0.0,81,0.00,,,0.00,Wunderground v.1.13,2013-03-26 05:02:00,
2013-03-26 01:07:00,33.3,27.5,29.64,SSW,205,0.0,0.0,79,0.00,,,0.00,Wunderground v.1.13,2013-03-26 05:07:00,
2013-03-26 01:12:00,33.2,27.7,29.64,SSW,205,0.0,0.0,80,0.00,,,0.00,Wunderground v.1.13,2013-03-26 05:12:00,
2013-03-26 01:17:00,32.9,28.0,29.64,SSW,205,0.0,2.0,82,0.00,,,0.00,Wunderground v.1.13,2013-03-26 05:17:00,
2013-03-26 01:23:00,32.9,28.0,29.64,SSW,205,0.0,1.0,82,0.00,,,0.00,Wunderground v.1.13,2013-03-26 05:23:00,
2013-03-26 01:28:00,32.8,27.3,29.64,SSW,205,0.0,0.0,80,0.00,,,0.00,Wunderground v.1.13,2013-03-26 05:28:00,
2013-03-26 01:34:00,32.8,27.6,29.64,SSW,205,0.0,0.0,81,0.00,,,0.00,Wunderground v.1.13,2013-03-26 05:34:00,
2013-03-26 01:39:00,32.8,27.9,29.64,SSW,205,0.0,1.0,82,0.00,,,0.00,Wunderground v.1.13,2013-03-26 05:39:00,
2013-03-26 01:44:00,32.9,28.3,29.64,SSW,205,0.0,0.0,83,0.00,,,0.00,Wunderground v.1.13,2013-03-26 05:44:00,
2013-03-26 01:50:00,33.0,28.4,29.64,SSW,205,0.0,0.0,83,0.00,,,0.00,Wunderground v.1.13,2013-03-26 05:50:00,
2013-03-26 01:55:00,33.1,28.5,29.64,SSW,205,0.0,0.0,83,0.00,,,0.00,Wunderground v.1.13,2013-03-26 05:55:00,
2013-03-26 02:00:00,33.0,28.4,29.64,SSW,205,0.0,0.0,83,0.00,,,0.00,Wunderground v.1.13,2013-03-26 06:00:00,
2013-03-26 02:05:00,33.0,28.4,29.64,SSW,205,0.0,0.0,83,0.00,,,0.00,Wunderground v.1.13,2013-03-26 06:05:00,
2013-03-26 02:10:00,32.8,27.9,29.64,SSW,205,0.0,0.0,82,0.00,,,0.00,Wunderground v.1.13,2013-03-26 06:10:00,
2013-03-26 02:15:00,32.8,28.2,29.64,SSW,205,0.0,0.0,83,0.00,,,0.00,Wunderground v.1.13,2013-03-26 06:15:00,
2013-03-26 02:20:00,32.8,27.9,29.64,SSW,205,0.0,0.0,82,0.00,,,0.00,Wunderground v.1.13,2013-03-26 06:20:00,
2013-03-26 02:26:00,32.7,27.8,29.64,SSW,205,0.0,0.0,82,0.00,,,0.00,Wunderground v.1.13,2013-03-26 06:26:00,
2013-03-26 02:31:00,32.6,28.0,29.64,SSW,205,0.0,0.0,83,0.00,,,0.00,Wunderground v.1.13,2013-03-26 06:31:00,
2013-03-26 02:36:00,32.7,28.1,29.64,SSW,205,0.0,0.0,83,0.00,,,0.00,Wunderground v.1.13,2013-03-26 06:36:00,
2013-03-26 02:41:00,32.7,28.1,29.64,SSW,205,0.0,0.0,83,0.00,,,0.00,Wunderground v.1.13,2013-03-26 06:41:00,
2013-03-26 02:47:00,32.7,28.4,29.64,SSW,205,0.0,0.0,84,0.00,,,0.00,Wunderground v.1.13,2013-03-26 06:47:00,
2013-03-26 02:52:00,32.8,28.8,29.64,SSW,205,0.0,0.0,85,0.00,,,0.00,Wunderground v.1.13,2013-03-26 06:52:00,
2013-03-26 02:57:00,33.0,29.0,29.64,SSW,205,0.0,0.0,85,0.00,,,0.00,Wunderground v.1.13,2013-03-26 06:57:00,
2013-03-26 03:02:00,33.2,28.9,29.64,SSW,205,0.0,0.0,84,0.00,,,0.00,Wunderground v.1.13,2013-03-26 07:02:00,
2013-03-26 03:08:00,33.2,28.6,29.64,SSW,205,0.0,0.0,83,0.00,,,0.00,Wunderground v.1.13,2013-03-26 07:08:00,
2013-03-26 03:13:00,33.2,28.6,29.64,SSW,205,0.0,0.0,83,0.00,,,0.00,Wunderground v.1.13,2013-03-26 07:13:00,
2013-03-26 03:18:00,33.1,28.5,29.64,SSW,205,0.0,0.0,83,0.00,,,0.00,Wunderground v.1.13,2013-03-26 07:18:00,
2013-03-26 03:23:00,33.2,28.6,29.64,SSW,205,0.0,0.0,83,0.00,,,0.00,Wunderground v.1.13,2013-03-26 07:23:00,
2013-03-26 03:28:00,33.2,28.9,29.64,SSW,205,0.0,0.0,84,0.00,,,0.00,Wunderground v.1.13,2013-03-26 07:28:00,
2013-03-26 03:33:00,33.4,28.8,29.64,SSW,205,0.0,0.0,83,0.00,,,0.00,Wunderground v.1.13,2013-03-26 07:33:00,
2013-03-26 03:38:00,33.2,28.6,29.64,SSW,205,0.0,0.0,83,0.00,,,0.00,Wunderground v.1.13,2013-03-26 07:38:00,
2013-03-26 03:43:00,33.1,28.8,29.64,SSW,205,0.0,0.0,84,0.00,,,0.00,Wunderground v.1.13,2013-03-26 07:43:00,
2013-03-26 03:48:00,33.2,28.9,29.64,SSW,205,0.0,0.0,84,0.00,,,0.00,Wunderground v.1.13,2013-03-26 07:48:00,
2013-03-26 03:53:00,33.1,28.8,29.64,SSW,205,0.0,0.0,84,0.00,,,0.00,Wunderground v.1.13,2013-03-26 07:53:00,
2013-03-26 03:58:00,33.1,29.1,29.64,SSW,205,0.0,0.0,85,0.00,,,0.00,Wunderground v.1.13,2013-03-26 07:58:00,
2013-03-26 04:03:00,33.2,29.2,29.64,SSW,205,0.0,0.0,85,0.00,,,0.00,Wunderground v.1.13,2013-03-26 08:03:00,
2013-03-26 04:08:00,33.2,29.2,29.64,SSW,205,0.0,0.0,85,0.00,,,0.00,Wunderground v.1.13,2013-03-26 08:08:00,
2013-03-26 04:13:00,33.2,29.2,29.64,SSW,205,0.0,0.0,85,0.00,,,0.00,Wunderground v.1.13,2013-03-26 08:13:00,
2013-03-26 04:18:00,33.1,29.1,29.64,SSW,205,0.0,0.0,85,0.00,,,0.00,Wunderground v.1.13,2013-03-26 08:18:00,
2013-03-26 04:23:00,33.1,29.1,29.64,SSW,205,0.0,0.0,85,0.00,,,0.00,Wunderground v.1.13,2013-03-26 08:23:00,
2013-03-26 04:28:00,33.0,29.0,29.64,SSW,205,0.0,0.0,85,0.00,,,0.00,Wunderground v.1.13,2013-03-26 08:28:00,
2013-03-26 04:33:00,33.0,29.0,29.64,SSW,205,0.0,0.0,85,0.00,,,0.00,Wunderground v.1.13,2013-03-26 08:33:00,
2013-03-26 04:38:00,33.2,29.2,29.65,SSW,205,0.0,0.0,85,0.00,,,0.00,Wunderground v.1.13,2013-03-26 08:38:00,
2013-03-26 04:43:00,33.3,29.3,29.65,SSW,205,0.0,0.0,85,0.00,,,0.00,Wunderground v.1.13,2013-03-26 08:43:00,
2013-03-26 04:48:00,33.3,29.3,29.64,SSW,205,0.0,0.0,85,0.00,,,0.00,Wunderground v.1.13,2013-03-26 08:48:00,
2013-03-26 04:53:00,33.4,29.4,29.64,SSW,205,0.0,0.0,85,0.00,,,0.00,Wunderground v.1.13,2013-03-26 08:53:00,
2013-03-26 04:58:00,33.4,29.1,29.64,SSW,205,0.0,0.0,84,0.00,,,0.00,Wunderground v.1.13,2013-03-26 08:58:00,
2013-03-26 05:03:00,33.3,29.0,29.64,SSW,205,0.0,0.0,84,0.00,,,0.00,Wunderground v.1.13,2013-03-26 09:03:00,
2013-03-26 05:08:00,33.3,29.0,29.65,SSW,205,0.0,0.0,84,0.00,,,0.00,Wunderground v.1.13,2013-03-26 09:08:00,
2013-03-26 05:13:00,33.2,28.9,29.65,SSW,205,0.0,0.0,84,0.00,,,0.00,Wunderground v.1.13,2013-03-26 09:13:00,
2013-03-26 05:18:00,33.0,28.7,29.65,SSW,205,0.0,0.0,84,0.00,,,0.00,Wunderground v.1.13,2013-03-26 09:18:00,
2013-03-26 05:23:00,32.9,28.6,29.65,SSW,205,0.0,0.0,84,0.00,,,0.00,Wunderground v.1.13,2013-03-26 09:23:00,
2013-03-26 05:28:00,32.7,28.4,29.65,SSW,205,0.0,0.0,84,0.00,,,0.00,Wunderground v.1.13,2013-03-26 09:28:00,
2013-03-26 05:33:00,32.6,28.6,29.66,SSW,205,0.0,1.0,85,0.00,,,0.00,Wunderground v.1.13,2013-03-26 09:33:00,
2013-03-26 05:38:00,32.6,28.3,29.65,SSW,205,0.0,1.0,84,0.00,,,0.00,Wunderground v.1.13,2013-03-26 09:38:00,
2013-03-26 05:43:00,32.5,28.2,29.66,West,273,0.0,1.0,84,0.00,,,0.00,Wunderground v.1.13,2013-03-26 09:43:00,
2013-03-26 05:48:00,32.6,28.0,29.66,NNW,327,1.0,3.0,83,0.00,,,0.00,Wunderground v.1.13,2013-03-26 09:48:00,
2013-03-26 05:54:00,32.6,28.0,29.66,NNW,328,0.0,1.0,83,0.00,,,0.00,Wunderground v.1.13,2013-03-26 09:54:00,
2013-03-26 05:59:00,32.6,27.7,29.66,NW,325,2.0,2.0,82,0.00,,,0.00,Wunderground v.1.13,2013-03-26 09:59:00,
2013-03-26 06:04:00,32.6,28.0,29.66,NNE,28,2.0,3.0,83,0.00,,,0.00,Wunderground v.1.13,2013-03-26 10:04:00,
2013-03-26 06:09:00,32.5,27.6,29.66,WNW,283,1.0,2.0,82,0.00,,,0.00,Wunderground v.1.13,2013-03-26 10:09:00,
2013-03-26 06:14:00,32.4,27.8,29.67,WNW,283,0.0,1.0,83,0.00,,,0.00,Wunderground v.1.13,2013-03-26 10:14:00,
2013-03-26 06:19:00,32.3,27.7,29.67,NNW,334,1.0,1.0,83,0.00,,,0.00,Wunderground v.1.13,2013-03-26 10:19:00,
2013-03-26 06:24:00,32.2,27.6,29.67,NNW,334,0.0,2.0,83,0.00,,,0.00,Wunderground v.1.13,2013-03-26 10:24:00,
2013-03-26 06:30:00,32.2,27.9,29.68,NNW,337,0.0,0.0,84,0.00,,,0.00,Wunderground v.1.13,2013-03-26 10:30:00,
2013-03-26 06:35:00,32.1,27.8,29.68,NNW,338,1.0,2.0,84,0.00,,,0.00,Wunderground v.1.13,2013-03-26 10:35:00,
2013-03-26 06:40:00,32.0,28.0,29.68,NNW,340,0.0,1.0,85,0.00,,,0.00,Wunderground v.1.13,2013-03-26 10:40:00,
2013-03-26 06:45:00,31.9,28.2,29.68,North,355,0.0,0.0,86,0.00,,,0.00,Wunderground v.1.13,2013-03-26 10:45:00,
2013-03-26 06:51:00,31.8,28.1,29.68,North,360,2.0,2.0,86,0.00,,,0.00,Wunderground v.1.13,2013-03-26 10:51:00,
2013-03-26 06:56:00,31.7,28.0,29.68,NNE,15,1.0,1.0,86,0.00,,,0.00,Wunderground v.1.13,2013-03-26 10:56:00,
2013-03-26 07:01:00,31.7,28.0,29.69,ENE,57,0.0,0.0,86,0.00,,,0.00,Wunderground v.1.13,2013-03-26 11:01:00,
2013-03-26 07:06:00,31.7,28.0,29.69,ENE,57,0.0,0.0,86,0.00,,,0.00,Wunderground v.1.13,2013-03-26 11:06:00,
2013-03-26 07:11:00,31.7,28.0,29.69,NNE,28,0.0,1.0,86,0.00,,,0.00,Wunderground v.1.13,2013-03-26 11:11:00,
2013-03-26 07:16:00,31.7,28.0,29.69,NW,313,0.0,0.0,86,0.00,,,0.00,Wunderground v.1.13,2013-03-26 11:16:00,
2013-03-26 07:21:00,31.7,28.0,29.69,SW,214,0.0,0.0,86,0.00,,,0.00,Wunderground v.1.13,2013-03-26 11:21:00,
2013-03-26 07:26:00,31.7,27.7,29.69,ENE,69,1.0,1.0,85,0.00,,,0.00,Wunderground v.1.13,2013-03-26 11:26:00,
2013-03-26 07:31:00,31.6,27.6,29.69,WNW,296,2.0,3.0,85,0.00,,,0.00,Wunderground v.1.13,2013-03-26 11:31:00,
2013-03-26 07:37:00,31.6,27.6,29.70,WNW,297,0.0,1.0,85,0.00,,,0.00,Wunderground v.1.13,2013-03-26 11:37:00,
2013-03-26 07:42:00,31.7,28.0,29.70,NW,324,0.0,2.0,86,0.00,,,0.00,Wunderground v.1.13,2013-03-26 11:42:00,
2013-03-26 07:47:00,31.7,27.7,29.70,NW,321,1.0,2.0,85,0.00,,,0.00,Wunderground v.1.13,2013-03-26 11:47:00,
2013-03-26 07:52:00,31.7,27.7,29.70,SE,132,2.0,2.0,85,0.00,,,0.00,Wunderground v.1.13,2013-03-26 11:52:00,
2013-03-26 07:57:00,31.8,27.8,29.70,West,262,0.0,2.0,85,0.00,,,0.00,Wunderground v.1.13,2013-03-26 11:57:00,
2013-03-26 08:02:00,31.8,27.8,29.70,WSW,253,0.0,2.0,85,0.00,,,0.00,Wunderground v.1.13,2013-03-26 12:02:00,
2013-03-26 08:07:00,31.8,27.5,29.70,NNE,15,0.0,2.0,84,0.00,,,0.00,Wunderground v.1.13,2013-03-26 12:07:00,
2013-03-26 08:12:00,31.7,27.4,29.70,ENE,63,2.0,2.0,84,0.00,,,0.00,Wunderground v.1.13,2013-03-26 12:12:00,
2013-03-26 08:18:00,31.8,27.5,29.70,West,275,0.0,5.0,84,0.00,,,0.00,Wunderground v.1.13,2013-03-26 12:18:00,
2013-03-26 08:23:00,32.1,27.8,29.70,West,276,2.0,2.0,84,0.00,,,0.00,Wunderground v.1.13,2013-03-26 12:23:00,
2013-03-26 08:28:00,32.4,27.8,29.70,NNW,332,0.0,3.0,83,0.00,,,0.00,Wunderground v.1.13,2013-03-26 12:28:00,
2013-03-26 08:33:00,32.8,28.2,29.71,NE,45,2.0,2.0,83,0.00,,,0.00,Wunderground v.1.13,2013-03-26 12:33:00,
2013-03-26 08:38:00,33.1,27.9,29.71,NE,36,0.0,4.0,81,0.00,,,0.00,Wunderground v.1.13,2013-03-26 12:38:00,
2013-03-26 08:43:00,33.5,28.0,29.71,NE,37,1.0,1.0,80,0.00,,,0.00,Wunderground v.1.13,2013-03-26 12:43:00,
2013-03-26 08:48:00,34.3,28.5,29.71,North,9,0.0,2.0,79,0.00,,,0.00,Wunderground v.1.13,2013-03-26 12:48:00,
2013-03-26 08:53:00,35.0,28.5,29.71,NNW,345,2.0,6.0,77,0.00,,,0.00,Wunderground v.1.13,2013-03-26 12:53:00,
2013-03-26 08:58:00,35.4,28.3,29.71,North,360,2.0,5.0,75,0.00,,,0.00,Wunderground v.1.13,2013-03-26 12:58:00,
2013-03-26 09:04:00,35.6,28.1,29.71,NE,42,0.0,5.0,74,0.00,,,0.00,Wunderground v.1.13,2013-03-26 13:04:00,
2013-03-26 09:09:00,35.7,27.9,29.71,NNE,17,2.0,4.0,73,0.00,,,0.00,Wunderground v.1.13,2013-03-26 13:09:00,
2013-03-26 09:14:00,36.6,28.4,29.71,NE,40,0.0,2.0,72,0.00,,,0.00,Wunderground v.1.13,2013-03-26 13:14:00,
2013-03-26 09:19:00,37.4,28.2,29.71,NNE,30,0.0,3.0,69,0.00,,,0.00,Wunderground v.1.13,2013-03-26 13:19:00,
2013-03-26 09:24:00,37.4,28.2,29.71,North,349,0.0,4.0,69,0.00,,,0.00,Wunderground v.1.13,2013-03-26 13:24:00,
2013-03-26 09:29:00,37.2,27.2,29.71,NE,36,0.0,4.0,67,0.00,,,0.00,Wunderground v.1.13,2013-03-26 13:29:00,
2013-03-26 09:34:00,36.8,26.1,29.72,NW,313,3.0,5.0,65,0.00,,,0.00,Wunderground v.1.13,2013-03-26 13:34:00,
2013-03-26 09:39:00,36.3,24.9,29.71,North,355,6.0,6.0,63,0.00,,,0.00,Wunderground v.1.13,2013-03-26 13:39:00,
2013-03-26 09:44:00,36.3,24.1,29.72,North,350,2.0,4.0,61,0.00,,,0.00,Wunderground v.1.13,2013-03-26 13:44:00,
2013-03-26 09:49:00,36.4,25.0,29.72,North,5,2.0,5.0,63,0.00,,,0.00,Wunderground v.1.13,2013-03-26 13:49:00,
2013-03-26 09:54:00,36.6,25.2,29.72,NE,39,1.0,5.0,63,0.00,,,0.00,Wunderground v.1.13,2013-03-26 13:54:00,
2013-03-26 09:59:00,36.8,24.2,29.72,NW,307,4.0,6.0,60,0.00,,,0.00,Wunderground v.1.13,2013-03-26 13:59:00,
2013-03-26 10:04:00,36.9,23.5,29.72,WNW,286,0.0,8.0,58,0.00,,,0.00,Wunderground v.1.13,2013-03-26 14:04:00,
2013-03-26 10:09:00,37.3,24.3,29.72,NNW,331,2.0,5.0,59,0.00,,,0.00,Wunderground v.1.13,2013-03-26 14:09:00,
2013-03-26 10:15:00,38.3,25.2,29.72,NE,36,0.0,2.0,59,0.00,,,0.00,Wunderground v.1.13,2013-03-26 14:15:00,
2013-03-26 10:20:00,39.3,24.0,29.72,NNE,26,3.0,3.0,54,0.00,,,0.00,Wunderground v.1.13,2013-03-26 14:20:00,
2013-03-26 10:25:00,39.7,24.0,29.72,NNW,336,4.0,4.0,53,0.00,,,0.00,Wunderground v.1.13,2013-03-26 14:25:00,
2013-03-26 10:30:00,39.7,24.4,29.72,ENE,67,3.0,3.0,54,0.00,,,0.00,Wunderground v.1.13,2013-03-26 14:30:00,
2013-03-26 10:35:00,39.5,24.2,29.72,NNE,17,5.0,5.0,54,0.00,,,0.00,Wunderground v.1.13,2013-03-26 14:35:00,
2013-03-26 10:40:00,38.7,23.0,29.72,NE,41,2.0,3.0,53,0.00,,,0.00,Wunderground v.1.13,2013-03-26 14:40:00,
2013-03-26 10:45:00,38.8,24.0,29.72,NNW,346,2.0,3.0,55,0.00,,,0.00,Wunderground v.1.13,2013-03-26 14:45:00,
2013-03-26 10:50:00,38.8,22.7,29.72,NW,311,4.0,4.0,52,0.00,,,0.00,Wunderground v.1.13,2013-03-26 14:50:00,
2013-03-26 10:55:00,38.8,22.2,29.72,WSW,256,1.0,4.0,51,0.00,,,0.00,Wunderground v.1.13,2013-03-26 14:55:00,
2013-03-26 11:00:00,38.9,22.8,29.72,NNW,339,1.0,3.0,52,0.00,,,0.00,Wunderground v.1.13,2013-03-26 15:00:00,
2013-03-26 11:05:00,39.5,22.8,29.73,NW,322,6.0,9.0,51,0.00,,,0.00,Wunderground v.1.13,2013-03-26 15:05:00,
2013-03-26 11:10:00,39.6,22.9,29.73,NNW,341,4.0,4.0,51,0.00,,,0.00,Wunderground v.1.13,2013-03-26 15:10:00,
2013-03-26 11:15:00,39.9,23.7,29.73,North,9,2.0,3.0,52,0.00,,,0.00,Wunderground v.1.13,2013-03-26 15:15:00,
2013-03-26 11:20:00,39.8,23.1,29.73,ESE,123,1.0,4.0,51,0.00,,,0.00,Wunderground v.1.13,2013-03-26 15:20:00,
2013-03-26 11:25:00,39.6,23.9,29.73,SSE,167,3.0,3.0,53,0.00,,,0.00,Wunderground v.1.13,2013-03-26 15:25:00,
2013-03-26 11:31:00,39.6,22.5,29.73,NNW,329,0.0,4.0,50,0.00,,,0.00,Wunderground v.1.13,2013-03-26 15:31:00,
2013-03-26 11:36:00,39.7,22.6,29.73,West,275,4.0,9.0,50,0.00,,,0.00,Wunderground v.1.13,2013-03-26 15:36:00,
2013-03-26 11:41:00,40.1,22.0,29.74,NNW,331,5.0,5.0,48,0.00,,,0.00,Wunderground v.1.13,2013-03-26 15:41:00,
2013-03-26 11:46:00,40.7,22.0,29.73,West,269,4.0,4.0,47,0.00,,,0.00,Wunderground v.1.13,2013-03-26 15:46:00,
2013-03-26 11:51:00,40.0,22.4,29.73,WSW,242,5.0,8.0,49,0.00,,,0.00,Wunderground v.1.13,2013-03-26 15:51:00,
2013-03-26 11:56:00,39.4,21.8,29.74,NE,51,2.0,4.0,49,0.00,,,0.00,Wunderground v.1.13,2013-03-26 15:56:00,
2013-03-26 12:02:00,39.4,21.8,29.74,NW,317,2.0,4.0,49,0.00,,,0.00,Wunderground v.1.13,2013-03-26 16:02:00,
2013-03-26 12:07:00,39.7,22.6,29.74,North,5,5.0,7.0,50,0.00,,,0.00,Wunderground v.1.13,2013-03-26 16:07:00,
2013-03-26 12:12:00,40.0,23.3,29.74,NNW,329,6.0,6.0,51,0.00,,,0.00,Wunderground v.1.13,2013-03-26 16:12:00,
2013-03-26 12:17:00,39.8,22.7,29.74,ENE,64,1.0,4.0,50,0.00,,,0.00,Wunderground v.1.13,2013-03-26 16:17:00,
2013-03-26 12:22:00,39.7,22.6,29.74,East,94,2.0,7.0,50,0.00,,,0.00,Wunderground v.1.13,2013-03-26 16:22:00,
2013-03-26 12:27:00,39.8,22.2,29.74,WSW,254,3.0,4.0,49,0.00,,,0.00,Wunderground v.1.13,2013-03-26 16:27:00,
2013-03-26 12:32:00,40.2,22.1,29.74,NE,52,1.0,7.0,48,0.00,,,0.00,Wunderground v.1.13,2013-03-26 16:32:00,
2013-03-26 12:37:00,40.3,23.6,29.74,North,11,2.0,3.0,51,0.00,,,0.00,Wunderground v.1.13,2013-03-26 16:37:00,
2013-03-26 12:42:00,40.4,21.7,29.74,WSW,252,2.0,6.0,47,0.00,,,0.00,Wunderground v.1.13,2013-03-26 16:42:00,
2013-03-26 12:47:00,40.7,23.0,29.74,NNE,20,3.0,7.0,49,0.00,,,0.00,Wunderground v.1.13,2013-03-26 16:47:00,
2013-03-26 12:52:00,41.0,23.3,29.74,NW,309,6.0,8.0,49,0.00,,,0.00,Wunderground v.1.13,2013-03-26 16:52:00,
2013-03-26 12:57:00,41.5,22.7,29.74,NNE,28,3.0,7.0,47,0.00,,,0.00,Wunderground v.1.13,2013-03-26 16:57:00,
2013-03-26 13:02:00,42.2,23.4,29.74,NNW,342,0.0,4.0,47,0.00,,,0.00,Wunderground v.1.13,2013-03-26 17:02:00,
2013-03-26 13:07:00,42.5,22.6,29.74,West,265,4.0,9.0,45,0.00,,,0.00,Wunderground v.1.13,2013-03-26 17:07:00,
2013-03-26 13:12:00,42.2,23.4,29.74,North,355,3.0,6.0,47,0.00,,,0.00,Wunderground v.1.13,2013-03-26 17:12:00,
2013-03-26 13:17:00,42.3,21.9,29.74,NE,54,5.0,12.0,44,0.00,,,0.00,Wunderground v.1.13,2013-03-26 17:17:00,
2013-03-26 13:23:00,42.4,21.5,29.73,NW,322,0.0,3.0,43,0.00,,,0.00,Wunderground v.1.13,2013-03-26 17:23:00,
2013-03-26 13:28:00,43.1,24.2,29.74,NE,49,4.0,7.0,47,0.00,,,0.00,Wunderground v.1.13,2013-03-26 17:28:00,
2013-03-26 13:33:00,41.8,20.9,29.74,WNW,283,0.0,9.0,43,0.00,,,0.00,Wunderground v.1.13,2013-03-26 17:33:00,
2013-03-26 13:38:00,41.6,21.3,29.74,NNE,21,1.0,8.0,44,0.00,,,0.00,Wunderground v.1.13,2013-03-26 17:38:00,
2013-03-26 13:43:00,42.5,22.1,29.74,NE,38,2.0,7.0,44,0.00,,,0.00,Wunderground v.1.13,2013-03-26 17:43:00,
2013-03-26 13:48:00,43.2,22.2,29.74,ESE,103,1.0,4.0,43,0.00,,,0.00,Wunderground v.1.13,2013-03-26 17:48:00,
2013-03-26 13:53:00,43.3,22.8,29.74,ESE,107,4.0,5.0,44,0.00,,,0.00,Wunderground v.1.13,2013-03-26 17:53:00,
2013-03-26 13:58:00,43.3,21.7,29.74,North,360,1.0,5.0,42,0.00,,,0.00,Wunderground v.1.13,2013-03-26 17:58:00,
2013-03-26 14:04:00,42.6,22.2,29.74,NNE,24,3.0,8.0,44,0.00,,,0.00,Wunderground v.1.13,2013-03-26 18:04:00,
2013-03-26 14:09:00,43.3,23.4,29.74,North,9,2.0,6.0,45,0.00,,,0.00,Wunderground v.1.13,2013-03-26 18:09:00,
2013-03-26 14:14:00,43.4,23.4,29.74,NW,326,5.0,8.0,45,0.00,,,0.00,Wunderground v.1.13,2013-03-26 18:14:00,
2013-03-26 14:19:00,42.7,22.8,29.74,North,5,3.0,7.0,45,0.00,,,0.00,Wunderground v.1.13,2013-03-26 18:19:00,
2013-03-26 14:24:00,43.1,22.1,29.73,ESE,121,1.0,4.0,43,0.00,,,0.00,Wunderground v.1.13,2013-03-26 18:24:00,
2013-03-26 14:29:00,43.9,22.3,29.73,SW,223,4.0,6.0,42,0.00,,,0.00,Wunderground v.1.13,2013-03-26 18:29:00,
2013-03-26 14:34:00,44.0,21.8,29.73,South,189,4.0,7.0,41,0.00,,,0.00,Wunderground v.1.13,2013-03-26 18:34:00,
2013-03-26 14:39:00,44.4,21.6,29.73,WNW,286,2.0,5.0,40,0.00,,,0.00,Wunderground v.1.13,2013-03-26 18:39:00,
2013-03-26 14:44:00,43.9,22.3,29.73,SE,142,5.0,9.0,42,0.00,,,0.00,Wunderground v.1.13,2013-03-26 18:44:00,
2013-03-26 14:49:00,43.8,23.3,29.73,NNE,18,1.0,9.0,44,0.00,,,0.00,Wunderground v.1.13,2013-03-26 18:49:00,
2013-03-26 14:54:00,43.9,22.3,29.73,NW,318,3.0,6.0,42,0.00,,,0.00,Wunderground v.1.13,2013-03-26 18:54:00,
2013-03-26 14:59:00,44.4,22.7,29.73,NW,319,10.0,11.0,42,0.00,,,0.00,Wunderground v.1.13,2013-03-26 18:59:00,
2013-03-26 15:04:00,44.1,23.0,29.73,NNE,32,5.0,9.0,43,0.00,,,0.00,Wunderground v.1.13,2013-03-26 19:04:00,
2013-03-26 15:09:00,43.6,22.5,29.73,South,179,1.0,9.0,43,0.00,,,0.00,Wunderground v.1.13,2013-03-26 19:09:00,
2013-03-26 15:14:00,44.4,22.7,29.73,North,5,3.0,4.0,42,0.00,,,0.00,Wunderground v.1.13,2013-03-26 19:14:00,
2013-03-26 15:19:00,45.0,22.7,29.73,West,268,4.0,7.0,41,0.00,,,0.00,Wunderground v.1.13,2013-03-26 19:19:00,
2013-03-26 15:25:00,44.3,22.6,29.74,NNW,334,5.0,5.0,42,0.00,,,0.00,Wunderground v.1.13,2013-03-26 19:25:00,
2013-03-26 15:30:00,44.3,24.3,29.73,ENE,62,3.0,3.0,45,0.00,,,0.00,Wunderground v.1.13,2013-03-26 19:30:00,
2013-03-26 15:35:00,44.2,22.0,29.74,NNE,26,5.0,5.0,41,0.00,,,0.00,Wunderground v.1.13,2013-03-26 19:35:00,
2013-03-26 15:40:00,44.1,23.6,29.74,NNE,29,2.0,3.0,44,0.00,,,0.00,Wunderground v.1.13,2013-03-26 19:40:00,
2013-03-26 15:45:00,44.3,23.2,29.74,North,5,1.0,4.0,43,0.00,,,0.00,Wunderground v.1.13,2013-03-26 19:45:00,
2013-03-26 15:50:00,43.8,23.3,29.74,WSW,245,5.0,6.0,44,0.00,,,0.00,Wunderground v.1.13,2013-03-26 19:50:00,
2013-03-26 15:55:00,42.8,22.4,29.74,North,5,1.0,4.0,44,0.00,,,0.00,Wunderground v.1.13,2013-03-26 19:55:00,
2013-03-26 16:00:00,42.7,22.8,29.74,WNW,284,2.0,3.0,45,0.00,,,0.00,Wunderground v.1.13,2013-03-26 20:00:00,
2013-03-26 16:05:00,43.2,22.7,29.74,SSW,194,4.0,4.0,44,0.00,,,0.00,Wunderground v.1.13,2013-03-26 20:05:00,
2013-03-26 16:11:00,43.6,22.5,29.74,SSW,201,7.0,12.0,43,0.00,,,0.00,Wunderground v.1.13,2013-03-26 20:11:00,
2013-03-26 16:16:00,43.7,23.2,29.74,North,11,2.0,7.0,44,0.00,,,0.00,Wunderground v.1.13,2013-03-26 20:16:00,
2013-03-26 16:22:00,43.6,22.5,29.74,WNW,287,4.0,9.0,43,0.00,,,0.00,Wunderground v.1.13,2013-03-26 20:22:00,
2013-03-26 16:27:00,42.9,22.5,29.75,NW,311,3.0,5.0,44,0.00,,,0.00,Wunderground v.1.13,2013-03-26 20:27:00,
2013-03-26 16:32:00,42.5,22.6,29.75,NW,323,0.0,10.0,45,0.00,,,0.00,Wunderground v.1.13,2013-03-26 20:32:00,
2013-03-26 16:37:00,42.7,22.8,29.74,ESE,115,2.0,7.0,45,0.00,,,0.00,Wunderground v.1.13,2013-03-26 20:37:00,
2013-03-26 16:42:00,43.0,23.1,29.75,NW,317,2.0,10.0,45,0.00,,,0.00,Wunderground v.1.13,2013-03-26 20:42:00,
2013-03-26 16:47:00,43.3,23.4,29.74,West,260,0.0,4.0,45,0.00,,,0.00,Wunderground v.1.13,2013-03-26 20:47:00,
2013-03-26 16:52:00,43.8,23.8,29.74,SW,234,10.0,10.0,45,0.00,,,0.00,Wunderground v.1.13,2013-03-26 20:52:00,
2013-03-26 16:58:00,43.8,24.9,29.74,ENE,77,4.0,5.0,47,0.00,,,0.00,Wunderground v.1.13,2013-03-26 20:58:00,
2013-03-26 17:04:00,43.5,23.5,29.75,NE,53,0.0,9.0,45,0.00,,,0.00,Wunderground v.1.13,2013-03-26 21:04:00,
2013-03-26 17:09:00,43.1,23.7,29.75,NE,42,3.0,5.0,46,0.00,,,0.00,Wunderground v.1.13,2013-03-26 21:09:00,
2013-03-26 17:14:00,43.3,23.9,29.75,ESE,104,0.0,5.0,46,0.00,,,0.00,Wunderground v.1.13,2013-03-26 21:14:00,
2013-03-26 17:19:00,43.3,23.4,29.75,North,360,0.0,5.0,45,0.00,,,0.00,Wunderground v.1.13,2013-03-26 21:19:00,
2013-03-26 17:24:00,43.7,23.2,29.75,SE,131,0.0,3.0,44,0.00,,,0.00,Wunderground v.1.13,2013-03-26 21:24:00,
2013-03-26 17:29:00,43.6,23.6,29.75,North,9,3.0,5.0,45,0.00,,,0.00,Wunderground v.1.13,2013-03-26 21:29:00,
2013-03-26 17:34:00,43.4,23.4,29.75,NNE,27,0.0,6.0,45,0.00,,,0.00,Wunderground v.1.13,2013-03-26 21:34:00,
2013-03-26 17:39:00,43.2,23.3,29.75,North,355,0.0,6.0,45,0.00,,,0.00,Wunderground v.1.13,2013-03-26 21:39:00,
2013-03-26 17:44:00,43.1,23.2,29.76,North,5,1.0,3.0,45,0.00,,,0.00,Wunderground v.1.13,2013-03-26 21:44:00,
2013-03-26 17:49:00,42.5,23.2,29.76,North,355,3.0,10.0,46,0.00,,,0.00,Wunderground v.1.13,2013-03-26 21:49:00,
2013-03-26 17:55:00,41.9,22.6,29.76,North,355,4.0,4.0,46,0.00,,,0.00,Wunderground v.1.13,2013-03-26 21:55:00,
2013-03-26 18:00:00,41.5,22.7,29.76,NNW,344,6.0,6.0,47,0.00,,,0.00,Wunderground v.1.13,2013-03-26 22:00:00,
2013-03-26 18:05:00,41.2,22.5,29.76,NE,48,3.0,3.0,47,0.00,,,0.00,Wunderground v.1.13,2013-03-26 22:05:00,
2013-03-26 18:11:00,40.9,22.7,29.76,ENE,76,2.0,2.0,48,0.00,,,0.00,Wunderground v.1.13,2013-03-26 22:11:00,
2013-03-26 18:16:00,40.6,22.4,29.77,North,350,2.0,4.0,48,0.00,,,0.00,Wunderground v.1.13,2013-03-26 22:16:00,
2013-03-26 18:21:00,40.5,22.8,29.77,NW,323,3.0,3.0,49,0.00,,,0.00,Wunderground v.1.13,2013-03-26 22:21:00,
2013-03-26 18:26:00,40.3,23.6,29.77,NE,51,0.0,3.0,51,0.00,,,0.00,Wunderground v.1.13,2013-03-26 22:26:00,
2013-03-26 18:31:00,40.2,23.0,29.77,SE,139,1.0,2.0,50,0.00,,,0.00,Wunderground v.1.13,2013-03-26 22:31:00,
2013-03-26 18:36:00,39.9,23.2,29.77,WSW,242,2.0,4.0,51,0.00,,,0.00,Wunderground v.1.13,2013-03-26 22:36:00,
2013-03-26 18:41:00,39.7,23.5,29.77,ENE,67,1.0,2.0,52,0.00,,,0.00,Wunderground v.1.13,2013-03-26 22:41:00,
2013-03-26 18:47:00,39.4,23.7,29.78,WNW,291,1.0,4.0,53,0.00,,,0.00,Wunderground v.1.13,2013-03-26 22:47:00,
2013-03-26 18:52:00,39.3,23.6,29.78,West,276,0.0,6.0,53,0.00,,,0.00,Wunderground v.1.13,2013-03-26 22:52:00,
2013-03-26 18:57:00,39.1,23.8,29.78,NNW,340,3.0,3.0,54,0.00,,,0.00,Wunderground v.1.13,2013-03-26 22:57:00,
2013-03-26 19:02:00,38.8,23.6,29.78,NNE,27,0.0,5.0,54,0.00,,,0.00,Wunderground v.1.13,2013-03-26 23:02:00,
2013-03-26 19:07:00,38.0,23.3,29.78,ENE,62,0.0,2.0,55,0.00,,,0.00,Wunderground v.1.13,2013-03-26 23:07:00,
2013-03-26 19:12:00,37.7,24.2,29.79,ENE,59,0.0,2.0,58,0.00,,,0.00,Wunderground v.1.13,2013-03-26 23:12:00,
2013-03-26 19:17:00,37.3,23.9,29.79,North,360,1.0,3.0,58,0.00,,,0.00,Wunderground v.1.13,2013-03-26 23:17:00,
2013-03-26 19:22:00,37.3,23.0,29.79,North,355,2.0,6.0,56,0.00,,,0.00,Wunderground v.1.13,2013-03-26 23:22:00,
2013-03-26 19:27:00,37.7,23.4,29.79,NE,45,1.0,2.0,56,0.00,,,0.00,Wunderground v.1.13,2013-03-26 23:27:00,
2013-03-26 19:32:00,37.5,24.1,29.79,NNE,25,2.0,5.0,58,0.00,,,0.00,Wunderground v.1.13,2013-03-26 23:32:00,
2013-03-26 19:37:00,37.3,24.3,29.79,ENE,76,4.0,6.0,59,0.00,,,0.00,Wunderground v.1.13,2013-03-26 23:37:00,
2013-03-26 19:42:00,37.0,24.4,29.80,ENE,75,0.0,2.0,60,0.00,,,0.00,Wunderground v.1.13,2013-03-26 23:42:00,
2013-03-26 19:48:00,36.6,23.6,29.80,NE,48,0.0,4.0,59,0.00,,,0.00,Wunderground v.1.13,2013-03-26 23:48:00,
2013-03-26 19:53:00,36.4,24.2,29.80,NE,48,1.0,2.0,61,0.00,,,0.00,Wunderground v.1.13,2013-03-26 23:53:00,
2013-03-26 19:58:00,36.2,23.6,29.80,NE,51,0.0,4.0,60,0.00,,,0.00,Wunderground v.1.13,2013-03-26 23:58:00,
2013-03-26 20:03:00,36.2,24.0,29.80,NNE,19,1.0,5.0,61,0.00,,,0.00,Wunderground v.1.13,2013-03-27 00:03:00,
2013-03-26 20:08:00,36.2,24.0,29.80,NNE,19,1.0,2.0,61,0.00,,,0.00,Wunderground v.1.13,2013-03-27 00:08:00,
2013-03-26 20:13:00,35.9,23.4,29.80,West,277,1.0,2.0,60,0.00,,,0.00,Wunderground v.1.13,2013-03-27 00:13:00,
2013-03-26 20:18:00,35.7,23.2,29.80,NE,42,0.0,3.0,60,0.00,,,0.00,Wunderground v.1.13,2013-03-27 00:18:00,
2013-03-26 20:23:00,35.6,23.9,29.81,NE,53,0.0,2.0,62,0.00,,,0.00,Wunderground v.1.13,2013-03-27 00:23:00,
2013-03-26 20:28:00,35.1,23.8,29.81,NE,53,0.0,1.0,63,0.00,,,0.00,Wunderground v.1.13,2013-03-27 00:28:00,
2013-03-26 20:33:00,34.4,23.8,29.81,NE,53,0.0,0.0,65,0.00,,,0.00,Wunderground v.1.13,2013-03-27 00:33:00,
2013-03-26 20:38:00,33.7,24.3,29.81,NE,53,0.0,1.0,68,0.00,,,0.00,Wunderground v.1.13,2013-03-27 00:38:00,
2013-03-26 20:43:00,33.0,23.9,29.82,NE,53,0.0,0.0,69,0.00,,,0.00,Wunderground v.1.13,2013-03-27 00:43:00,
2013-03-26 20:48:00,32.3,23.9,29.82,NE,53,0.0,0.0,71,0.00,,,0.00,Wunderground v.1.13,2013-03-27 00:48:00,
2013-03-26 20:53:00,31.6,23.6,29.82,NE,53,0.0,1.0,72,0.00,,,0.00,Wunderground v.1.13,2013-03-27 00:53:00,
2013-03-26 20:58:00,31.2,23.5,29.82,NE,53,0.0,0.0,73,0.00,,,0.00,Wunderground v.1.13,2013-03-27 00:58:00,
2013-03-26 21:03:00,30.8,23.5,29.82,NE,53,0.0,0.0,74,0.00,,,0.00,Wunderground v.1.13,2013-03-27 01:03:00,
2013-03-26 21:08:00,30.4,23.7,29.82,NE,53,0.0,0.0,76,0.00,,,0.00,Wunderground v.1.13,2013-03-27 01:08:00,
2013-03-26 21:13:00,29.8,23.5,29.82,NE,53,0.0,1.0,77,0.00,,,0.00,Wunderground v.1.13,2013-03-27 01:13:00,
2013-03-26 21:18:00,29.8,23.5,29.82,NE,53,0.0,1.0,77,0.00,,,0.00,Wunderground v.1.13,2013-03-27 01:18:00,
2013-03-26 21:23:00,29.7,23.4,29.82,NE,53,0.0,0.0,77,0.00,,,0.00,Wunderground v.1.13,2013-03-27 01:23:00,
2013-03-26 21:28:00,29.4,23.4,29.82,NE,53,0.0,0.0,78,0.00,,,0.00,Wunderground v.1.13,2013-03-27 01:28:00,
2013-03-26 21:33:00,29.1,23.4,29.83,NE,53,0.0,0.0,79,0.00,,,0.00,Wunderground v.1.13,2013-03-27 01:33:00,
2013-03-26 21:38:00,28.8,22.8,29.83,NE,53,0.0,0.0,78,0.00,,,0.00,Wunderground v.1.13,2013-03-27 01:38:00,
2013-03-26 21:43:00,28.7,23.0,29.83,NE,53,0.0,0.0,79,0.00,,,0.00,Wunderground v.1.13,2013-03-27 01:43:00,
2013-03-26 21:48:00,28.6,22.9,29.83,NE,53,0.0,0.0,79,0.00,,,0.00,Wunderground v.1.13,2013-03-27 01:48:00,
2013-03-26 21:53:00,28.5,23.1,29.83,NE,53,0.0,0.0,80,0.00,,,0.00,Wunderground v.1.13,2013-03-27 01:53:00,
2013-03-26 21:58:00,28.3,22.9,29.83,NE,53,0.0,0.0,80,0.00,,,0.00,Wunderground v.1.13,2013-03-27 01:58:00,
2013-03-26 22:03:00,28.1,22.7,29.83,NE,53,0.0,0.0,80,0.00,,,0.00,Wunderground v.1.13,2013-03-27 02:03:00,
2013-03-26 22:08:00,27.9,22.8,29.83,NE,53,0.0,0.0,81,0.00,,,0.00,Wunderground v.1.13,2013-03-27 02:08:00,
2013-03-26 22:13:00,27.8,22.7,29.83,NE,53,0.0,0.0,81,0.00,,,0.00,Wunderground v.1.13,2013-03-27 02:13:00,
2013-03-26 22:18:00,27.7,22.9,29.83,NE,53,0.0,0.0,82,0.00,,,0.00,Wunderground v.1.13,2013-03-27 02:18:00,
2013-03-26 22:23:00,27.4,22.6,29.83,NE,53,0.0,0.0,82,0.00,,,0.00,Wunderground v.1.13,2013-03-27 02:23:00,
2013-03-26 22:28:00,27.3,22.5,29.83,NE,53,0.0,0.0,82,0.00,,,0.00,Wunderground v.1.13,2013-03-27 02:28:00,
2013-03-26 22:33:00,27.2,22.1,29.83,NE,53,0.0,0.0,81,0.00,,,0.00,Wunderground v.1.13,2013-03-27 02:33:00,
2013-03-26 22:38:00,27.0,22.2,29.83,NE,53,0.0,0.0,82,0.00,,,0.00,Wunderground v.1.13,2013-03-27 02:38:00,
2013-03-26 22:43:00,26.8,22.0,29.83,NE,53,0.0,0.0,82,0.00,,,0.00,Wunderground v.1.13,2013-03-27 02:43:00,
2013-03-26 22:49:00,26.5,22.0,29.83,NE,53,0.0,0.0,83,0.00,,,0.00,Wunderground v.1.13,2013-03-27 02:49:00,
2013-03-26 22:54:00,26.6,22.1,29.83,NE,53,0.0,0.0,83,0.00,,,0.00,Wunderground v.1.13,2013-03-27 02:54:00,
2013-03-26 22:59:00,26.5,22.3,29.83,NE,53,0.0,0.0,84,0.00,,,0.00,Wunderground v.1.13,2013-03-27 02:59:00,
2013-03-26 23:04:00,26.6,22.1,29.83,NE,53,0.0,0.0,83,0.00,,,0.00,Wunderground v.1.13,2013-03-27 03:04:00,
2013-03-26 23:09:00,26.5,22.0,29.83,NE,53,0.0,0.0,83,0.00,,,0.00,Wunderground v.1.13,2013-03-27 03:09:00,
2013-03-26 23:14:00,26.6,22.1,29.83,NE,53,0.0,0.0,83,0.00,,,0.00,Wunderground v.1.13,2013-03-27 03:14:00,
2013-03-26 23:19:00,26.6,22.1,29.83,NE,53,0.0,0.0,83,0.00,,,0.00,Wunderground v.1.13,2013-03-27 03:19:00,
2013-03-26 23:24:00,26.4,21.9,29.83,NE,53,0.0,0.0,83,0.00,,,0.00,Wunderground v.1.13,2013-03-27 03:24:00,
2013-03-26 23:29:00,26.3,21.8,29.83,NE,53,0.0,0.0,83,0.00,,,0.00,Wunderground v.1.13,2013-03-27 03:29:00,
2013-03-26 23:34:00,26.0,21.5,29.83,NE,53,0.0,0.0,83,0.00,,,0.00,Wunderground v.1.13,2013-03-27 03:34:00,
2013-03-26 23:39:00,26.0,21.5,29.83,NE,53,0.0,0.0,83,0.00,,,0.00,Wunderground v.1.13,2013-03-27 03:39:00,
2013-03-26 23:44:00,26.0,21.8,29.83,NE,53,0.0,0.0,84,0.00,,,0.00,Wunderground v.1.13,2013-03-27 03:44:00,
2013-03-26 23:49:00,26.0,21.5,29.83,NE,53,0.0,0.0,83,0.00,,,0.00,Wunderground v.1.13,2013-03-27 03:49:00,
2013-03-26 23:54:00,25.7,21.3,29.83,NE,53,0.0,0.0,83,0.00,,,0.00,Wunderground v.1.13,2013-03-27 03:54:00,
2013-03-26 23:59:00,25.8,21.6,29.83,NE,53,0.0,0.0,84,0.00,,,0.00,Wunderground v.1.13,2013-03-27 03:59:00,